Location: Tamazert
(32.6352°N, 5.2072°W)
Time: 03:34:12
(UTC+00:00)

Vanguard 1 Rocket - Pass Details

Date: 12 October 2022
Orbit: 650 x 4225 km, 34.3° (Epoch: 05 December)

Event Time Altitude Azimuth Distance (km) Brightness Sun altitude
Rises 14:48:51 0° 214° (SW) 7,387 13.0 34.4°
Reaches altitude 10° 14:53:42 10° 208° (SSW) 6,719 13.0 33.6°
Maximum altitude 15:16:32 49° 141° (SE) 4,934 11.4 29.7°
Drops below altitude 10° 15:38:22 10° 76° (ENE) 6,536 11.3 25.7°
Sets 15:42:53 0° 71° (ENE) 7,194 11.4 24.9°
